This is the latest recevied weather packets stored in our database for station/object WC4PEM-9. If no packets are shown the sender has not sent any weather packets the latest 10 day(s).
| Time | Temp. | Humidity | Pressure | Rain* | Wind** | Luminosity | Snow |
|---|---|---|---|---|---|---|---|
| 1777572824 | 30.56° C | 52% | 1010.4 hPa | 0 mm | - | - | - |
| 1777572707 | 30.56° C | 49% | 1010.6 hPa | 0 mm | - | - | - |
| 1777572524 | 30.56° C | 49% | 1010.6 hPa | 0 mm | - | - | - |
| 1777572303 | 30.56° C | 47% | 1010.7 hPa | 0 mm | - | - | - |
| 1777572224 | 30.56° C | 47% | 1010.7 hPa | 0 mm | - | - | - |
| 1777571924 | 30.56° C | 45% | 1010.7 hPa | 0 mm | - | - | - |
| 1777571809 | 30.56° C | 49% | 1011 hPa | 0 mm | - | - | - |
| 1777571624 | 30.56° C | 49% | 1011 hPa | 0 mm | - | - | - |
| 1777571477 | 30.56° C | 50% | 1011 hPa | 0 mm | - | - | - |
| 1777571324 | 30.56° C | 50% | 1011 hPa | 0 mm | - | - | - |
| 1777571175 | 30.56° C | 51% | 1010.9 hPa | 0 mm | - | - | - |
| 1777571024 | 30.56° C | 51% | 1010.9 hPa | 0 mm | - | - | - |
| 1777570929 | 30° C | 51% | 1011.2 hPa | 0 mm | - | - | - |
| 1777570724 | 30° C | 51% | 1011.2 hPa | 0 mm | - | - | - |
| 1777570577 | 29.44° C | 56% | 1011.1 hPa | 0 mm | - | - | - |
| 1777570424 | 29.44° C | 56% | 1011.1 hPa | 0 mm | - | - | - |
| 1777570275 | 29.44° C | 56% | 1011.3 hPa | 0 mm | - | - | - |
| 1777570124 | 29.44° C | 56% | 1011.3 hPa | 0 mm | - | - | - |
| 1777569949 | 29.44° C | 58% | 1011.3 hPa | 0 mm | - | - | - |
| 1777569824 | 29.44° C | 58% | 1011.3 hPa | 0 mm | - | - | - |
| 1777569676 | 29.44° C | 57% | 1011.3 hPa | 0 mm | - | - | - |
| 1777569524 | 29.44° C | 57% | 1011.3 hPa | 0 mm | - | - | - |
| 1777569406 | 29.44° C | 58% | 1011.4 hPa | 0 mm | - | - | - |
| 1777569224 | 29.44° C | 58% | 1011.4 hPa | 0 mm | - | - | - |
| 1777569110 | 29.44° C | 58% | 1011.3 hPa | 0 mm | - | - | - |
* Rain latest hour (hover to see other rain measurements)
** Current wind speed in m/s (hover to see current wind gust speed)